Location: Faicchio
(41.2833°N, 14.4833°E)
Time: 06:38:10
(UTC+00:00)

ATLAS 3B R/B - Pass Details

Date: 15 June 2025
Orbit: 935 x 1258 km, 63.8° (Epoch: 16 July)

Event Time Altitude Azimuth Distance (km) Brightness Sun altitude
Rises 02:47:19 0° 307° (NW) 4,196 5.7 -7.1°
Reaches altitude 10° 02:52:17 10° 281° (W) 3,184 4.8 -6.3°
Maximum altitude 02:55:01 12° 259° (W) 2,981 4.5 -5.9°
Drops below altitude 10° 02:57:42 10° 238° (WSW) 3,113 4.5 -5.5°
Enters shadow 03:00:20 - 221° (SW) 3,521 4.8 -5.2°
